Home   Weather   Delbrück   Past weeks

Flag for Germany Past Weather in Delbrück, North Rhine-Westphalia, Germany — Yesterday and Last 2 Weeks

Now
46 °F

Scattered clouds.


Feels Like: 44 °F
Forecast: 30 / 53 °F
Wind: 6 mph from Northwest

Location: Paderborn / Lippstadt

Current Time: Apr 26, 2017 at 3:57:26 pm

Latest Report: Apr 26, 2017 at 3:20 pm


Visibility: N/A

Pressure: 29.86 "Hg

Humidity: 43%

Dew Point: 25 °F

Location of DelbrückLocation

Past Weather in Delbrück — Graph

°F

Delbrück Temperature Yesterday

Maximum temperature yesterday: 50 °F (at 2:20 am)
Minimum temperature yesterday: 36 °F (at 11:20 pm)
Average temperature yesterday: 43 °F

High & Low Weather Summary for the Past Weeks

 TemperatureHumidityPressure
High55 °F (Apr 24, 12:20 pm)100% (Apr 22, 3:50 am)30.60 "Hg (Apr 22, 3:50 am)
Low27 °F (Apr 20, 5:50 am)34% (Apr 20, 6:20 pm)29.62 "Hg (Apr 25, 3:50 am)
Average43 °F64%30.17 "Hg
* Reported Apr 19 8:50 am — Apr 26 2:20 pm, Delbrück, Weather by CustomWeather, © 2017

Note: Actual official high and low records may vary slightly from our data, if they occured in-between our weather recording intervals... More about our weather records

Advertising

Delbrück Weather History for the Previous 24 Hours

Scroll right to see more
 ConditionsComfort  
Time TempWeatherWind HumidityBarometerVisibility
2:20 pm
Wed, Apr 26
48 °FScattered clouds.6 mph46%29.86 "HgN/A
1:50 pm46 °FScattered clouds.7 mph46%29.86 "HgN/A
1:20 pm48 °FScattered clouds.6 mph46%29.86 "HgN/A
12:50 pm46 °FScattered clouds.7 mph50%29.86 "HgN/A
12:20 pm45 °FScattered clouds.7 mph53%29.89 "HgN/A
11:50 am45 °FScattered clouds.3 mph53%29.86 "HgN/A
11:20 am43 °FScattered clouds.6 mph53%29.86 "HgN/A
10:50 am41 °FScattered clouds.6 mph66%29.86 "HgN/A
10:20 am41 °FScattered clouds.5 mph66%29.86 "HgN/A
9:50 am41 °FScattered clouds.6 mph70%29.86 "HgN/A
9:20 am41 °FPassing clouds.5 mph66%29.86 "HgN/A
8:50 am39 °FPassing clouds.5 mph75%29.86 "HgN/A
8:20 am36 °FPassing clouds.6 mph81%29.86 "HgN/A
7:50 am36 °FPassing clouds.5 mph81%29.86 "HgN/A
7:20 am36 °FPassing clouds.6 mph81%29.83 "HgN/A
6:50 am34 °FSunny.7 mph87%29.83 "Hg10 mi
6:20 am32 °FPassing clouds.3 mph87%29.83 "HgN/A
5:50 am34 °FClear.6 mph87%29.83 "Hg10 mi
5:20 am34 °FPassing clouds.6 mph87%29.83 "HgN/A
4:50 am34 °FOvercast.5 mph87%29.83 "HgN/A
4:20 am36 °FPassing clouds.7 mph81%29.83 "HgN/A
3:50 am32 °FPassing clouds.7 mph87%29.83 "HgN/A
3:20 am32 °FClear.7 mph87%29.83 "Hg10 mi
2:50 am34 °FClear.6 mph81%29.83 "Hg10 mi
2:20 am34 °FClear.5 mph87%29.83 "Hg10 mi
1:50 am34 °FClear.7 mph87%29.83 "Hg10 mi
1:20 am34 °FClear.7 mph87%29.83 "Hg10 mi
12:50 am36 °FClear.7 mph75%29.80 "Hg10 mi
12:20 am36 °FClear.8 mph75%29.80 "Hg10 mi
11:50 pm
Tue, Apr 25
36 °FClear.8 mph75%29.80 "Hg10 mi
11:20 pm36 °FClear.6 mph75%29.80 "Hg10 mi
10:50 pm37 °FClear.7 mph70%29.80 "Hg10 mi
10:20 pm37 °FClear.5 mph70%29.80 "Hg10 mi
9:50 pm39 °FClear.5 mph70%29.80 "Hg10 mi
9:20 pm41 °FPassing clouds.3 mph76%29.80 "HgN/A
8:20 pm43 °FScattered showers. Scattered clouds.7 mph71%29.80 "HgN/A
7:50 pm41 °FScattered showers. Scattered clouds.8 mph76%29.80 "HgN/A
7:20 pm41 °FSprinkles. Scattered clouds.10 mph76%29.77 "HgN/A
6:50 pm43 °FScattered clouds.9 mph66%29.77 "HgN/A
6:20 pm41 °FScattered clouds.9 mph70%29.77 "HgN/A
5:50 pm41 °FSprinkles. Scattered clouds.13 mph66%29.77 "HgN/A
5:20 pm46 °FRain showers. Scattered clouds.12 mph50%29.77 "HgN/A
4:50 pm46 °FScattered showers. Scattered clouds.12 mph57%29.77 "HgN/A
4:20 pm45 °FScattered clouds.16 mph66%29.77 "HgN/A
3:50 pm43 °FScattered showers. Scattered clouds.17 mph66%29.77 "HgN/A
3:20 pm43 °FSprinkles. Scattered clouds.16 mph61%29.74 "HgN/A
Weather by CustomWeather, © 2017

See weather overviewHow to use our weather pages